Regional Weather Roundup
Issued by NWS

Home | Current Version | Previous Version | Text Only | Print | Product List | Glossary On
Versions: 1 2 3 4 5 6 7 8 9 10 11 12 13 14 15 16 17 18 19 20 21 22 23 24 25 26 27 28 29 30 31 32 33 34 35 36 37 38 39 40 41 42 43 44 45 46 47 48 49 50
000
ASUS45 KBOU 290607
RWRCO

WEATHER ROUNDUP FOR COLORADO
NATIONAL WEATHER SERVICE DENVER/BOULDER CO
1200 AM MDT SAT AUG 29 2015

NOTE: "FAIR" INDICATES FEW OR NO CLOUDS BELOW 12000 FEET WITH NO
SIGNIFICANT WEATHER AND/OR OBSTRUCTIONS TO VISIBILITY.

COZ001>005-013-030-031-290700-
...NORTHWEST COLORADO...

CITY           SKY/WX    TMP DP  RH WIND       PRES   REMARKS
CRAIG          CLEAR     55  45  68 CALM      30.31S
HAYDEN         NOT AVBL
MEEKER         CLEAR     56  42  59 NE8       30.32S
MOUNT WERNER   NOT AVBL
STEAMBOAT SPGS CLEAR     54  45  73 CALM      30.37S
WALDEN         CLEAR     43  36  75 SE9       30.46S
$$

COZ006>008-011-290700-
...WEST CENTRAL VALLEYS...

CITY           SKY/WX    TMP DP  RH WIND       PRES   REMARKS
GRAND JUNCTION CLEAR     66  46  48 SE8       30.17R
MONTROSE       CLEAR     64  46  52 SE10      30.27S
EAGLE          CLEAR     55  43  62 S5        30.39R
RIFLE          CLEAR     62  46  55 E8        30.26R
DELTA          CLEAR     65  51  62 NE7       30.23R
NUCLA          CLEAR     64  37  36 E9        30.29S
$$

COZ017>023-064>068-290700-
...SOUTHWEST COLORADO...

CITY           SKY/WX    TMP DP  RH WIND       PRES   REMARKS
DURANGO        CLEAR     58  46  64 CALM      30.29S
CORTEZ         CLEAR     55  45  68 SE5       30.23S
PAGOSA SPRINGS CLOUDY    64  41  44 CALM      30.39R
TELLURIDE      CLEAR     54  40  61 SE5       30.51S
WOLF CREEK PAS CLOUDY    46  37  71 NE7       30.74R
$$

COZ009-010-012-014-032>034-037-058>063-290700-
...CENTRAL COLORADO...

CITY           SKY/WX    TMP DP  RH WIND       PRES   REMARKS
ASPEN          CLEAR     54  42  64 SW8       30.44S
BUENA VISTA    PTCLDY    57  46  67 CALM      30.50S
COPPER MTN     CLEAR     50  36  57 SE13      30.74F
BERTHOUD PASS  FAIR      39  28  65 SE12      30.79S
COTTONWOOD PAS PTCLDY    55  37  50 CALM      30.62S
GUNNISON       CLEAR     55  41  58 N7        30.46R
KREMMLING      CLEAR     50  43  76 W3        30.46R
LEADVILLE      MOCLDY    46  36  68 NE5       30.61R
MONARCH PASS   PTCLDY    43  36  75 E17       30.83R
SALIDA         PTCLDY    61  44  52 W7        30.53S
SUNLIGHT       CLEAR     50  37  62 CALM      30.66S
WILKERSON PASS CLOUDY    46  36  66 SE5       30.74S
$$

COZ069>075-290700-
...SAN LUIS VALLEY/SANGRE DE CRISTO MOUNTAINS...

CITY           SKY/WX    TMP DP  RH WIND       PRES   REMARKS
ALAMOSA        PTCLDY    65  41  41 E12       30.40R
LA VETA PASS   PTCLDY    52  39  62 MISG      30.61S
SAGUACHE       PTCLDY    59  41  51 N6        30.45R
$$

COZ035-036-038>040-290700-
...NORTHERN COLORADO FRONT RANGE...

CITY           SKY/WX    TMP DP  RH WIND       PRES   REMARKS
DENVER INTL AP PTCLDY    64  36  35 S12       30.29R
DMNS CITY PARK   N/A     66  49  53 SE7       30.30S
AURORA         PTCLDY    62  42  49 S6        30.32R
FRONT RANGE AP NOT AVBL
ERIE MUNI ARPT CLEAR     61  47  60 CALM      30.28R
BOULDER MUN AP CLEAR     66  45  45 W5        30.29S
CENTENNIAL     PTCLDY    61  43  51 S3        30.33R
BROOMFIELD     CLEAR     68  45  42 CALM      30.31S
FORT COLLINS   CLEAR     64  50  59 CALM      30.28R
LONGMONT       CLEAR     65  48  54 W3        30.29S
$$

COZ041-046-047-076>085-087-088-290700-
...PIKES PEAK/PALMER DIVIDE AND SOUTHERN FOOTHILLS...

CITY           SKY/WX    TMP DP  RH WIND       PRES   REMARKS
COLO. SPRINGS  MOCLDY    66  45  46 CALM      30.37R
A. F. ACADEMY  PTCLDY    56  46  70 N8        30.38S
ELLICOTT       MOCLDY   N/A N/A N/A E8        30.34R
FALCON         PTCLDY    60  43  52 MISG      30.41S
FORT CARSON    CLOUDY    64  48  57 N5        30.33R
LIMON          CLEAR     52  44  74 N5        30.30R
MONUMENT HILL  CLEAR     50  41  71 S5        30.41S
TRINIDAD       MOCLDY    67  48  50 W8        30.29F
$$

COZ042>045-048>051-090-091-290700-
...NORTHEAST COLORADO...

CITY           SKY/WX    TMP DP  RH WIND       PRES   REMARKS
GREELEY ARPT   CLEAR     55  48  76 CALM      30.26S
AKRON          CLEAR     65  45  48 E6        30.24R
BURLINGTON     CLEAR     61  50  67 S3        30.22R
WRAY           CLEAR     63  54  74 CALM      30.18S
STERLING       CLEAR     54  45  71 CALM      30.19R
HOLYOKE        CLEAR     61  55  82 W5        30.18S
FORT MORGAN    CLEAR     60  45  57 W5        30.24S
$$

COZ086-089-092>099-290700-
...SOUTHEAST COLORADO...

CITY           SKY/WX    TMP DP  RH WIND       PRES   REMARKS
PUEBLO         CLOUDY    72  48  42 NW3       30.24R
LA JUNTA       CLEAR     65  46  50 N6        30.20R
LAMAR          CLEAR     61  52  72 CALM      30.16R
SPRINGFIELD      N/A     69  50  50 NE12      30.19S
$$



USA.gov is the U.S. government's official web portal to all federal, state and local government web resources and services.